Location: Stoke Bliss
(52.2667°N, 2.5167°W)
Time: 21:23:15
(UTC+00:00)

IRIDIUM 33 DEB - Visible Passes

Search period start: 19 September 2021 00:00
Search period end: 29 September 2021 00:00
Orbit: 728 x 825 km, 86.3° (Epoch: 19 September)

Date Brightness Start Highest point End Pass type
(mag) Time Alt. Az. Time Alt. Az. Time Alt. Az.
19 Sep ? 21:36:57 20° NE 21:36:57 20° NE 21:38:52 10° NNE visible
19 Sep ? 23:17:24 27° NNW 23:17:24 27° NNW 23:19:56 10° N visible
20 Sep ? 21:03:11 14° NE 21:03:11 14° NE 21:04:18 10° NE visible
20 Sep ? 22:43:38 30° N 22:43:38 30° N 22:46:11 10° N visible
21 Sep ? 00:24:04 12° NW 00:24:04 12° NW 00:25:01 10° NW visible
21 Sep ? 22:09:51 28° NNE 22:09:51 28° NNE 22:12:15 10° N visible
21 Sep ? 23:50:18 17° NW 23:50:18 17° NW 23:52:14 10° NNW visible
22 Sep ? 21:36:04 23° NNE 21:36:04 23° NNE 21:38:09 10° NNE visible
22 Sep ? 23:16:30 23° NNW 23:16:30 23° NNW 23:18:50 10° N visible
23 Sep ? 21:02:16 17° NE 21:02:16 17° NE 21:03:48 10° NNE visible
23 Sep ? 22:42:43 28° NNW 22:42:43 28° NNW 22:45:11 10° N visible
24 Sep ? 20:28:27 11° NE 20:28:27 11° NE 20:28:56 10° NE visible
24 Sep ? 22:08:54 29° N 22:08:54 29° N 22:11:20 10° N visible
24 Sep ? 23:49:21 14° NW 23:49:21 14° NW 23:50:47 10° NNW visible
25 Sep ? 21:35:05 26° NNE 21:35:05 26° NNE 21:37:19 10° NNE visible
25 Sep ? 23:15:32 19° NW 23:15:32 19° NW 23:17:38 10° NNW visible
26 Sep ? 21:01:16 20° NE 21:01:16 20° NE 21:03:06 10° NNE visible
26 Sep ? 22:41:42 25° NNW 22:41:42 25° NNW 22:44:06 10° N visible
27 Sep ? 20:27:26 14° NE 20:27:26 14° NE 20:28:35 10° NNE visible
27 Sep ? 22:07:52 29° N 22:07:52 29° N 22:10:20 10° N visible
27 Sep ? 23:48:19 11° NW 23:48:19 11° NW 23:48:56 10° NW visible
28 Sep ? 21:34:02 28° NNE 21:34:02 28° NNE 21:36:25 10° N visible
28 Sep ? 23:14:28 16° NW 23:14:28 16° NW 23:16:18 10° NNW visible
